This is the latest recevied weather packets stored in our database for station/object DK4EP-10. If no packets are shown the sender has not sent any weather packets the latest 10 day(s).
| Time | Temp. | Humidity | Pressure | Rain* | Wind** | Luminosity | Snow |
|---|---|---|---|---|---|---|---|
| 1777732626 | 28.89° C | 32% | 996 hPa | - | - | - | - |
| 1777731725 | 28.89° C | 30% | 996 hPa | - | - | - | - |
| 1777729923 | 29.44° C | 33% | 997 hPa | - | - | - | - |
| 1777729021 | 28.33° C | 33% | 997 hPa | - | - | - | - |
| 1777728120 | 28.33° C | 33% | 997 hPa | - | - | - | - |
| 1777727219 | 28.33° C | 32% | 997 hPa | - | - | - | - |
| 1777726317 | 28.33° C | 32% | 997 hPa | - | - | - | - |
| 1777725416 | 27.78° C | 33% | 998 hPa | - | - | - | - |
| 1777724514 | 27.22° C | 36% | 998 hPa | - | - | - | - |
| 1777723613 | 27.22° C | 35% | 998 hPa | - | - | - | - |
| 1777722712 | 27.78° C | 35% | 998 hPa | - | - | - | - |
| 1777721811 | 27.22° C | 38% | 999 hPa | - | - | - | - |
| 1777720910 | 27.22° C | 37% | 999 hPa | - | - | - | - |
| 1777720009 | 26.67° C | 37% | 999 hPa | - | - | - | - |
| 1777719107 | 26.67° C | 36% | 999 hPa | - | - | - | - |
| 1777718206 | 26.67° C | 38% | 999 hPa | - | - | - | - |
| 1777717305 | 26.11° C | 38% | 999 hPa | - | - | - | - |
| 1777716404 | 25.56° C | 38% | 1000 hPa | - | - | - | - |
| 1777715503 | 26.11° C | 37% | 1000 hPa | - | - | - | - |
| 1777714601 | 25.56° C | 37% | 1000 hPa | - | - | - | - |
| 1777713700 | 25° C | 39% | 1000 hPa | - | - | - | - |
| 1777712799 | 25° C | 38% | 1000 hPa | - | - | - | - |
| 1777711898 | 24.44° C | 37% | 1000 hPa | - | - | - | - |
| 1777710999 | 24.44° C | 39% | 1000 hPa | - | - | - | - |
| 1777710098 | 25° C | 37% | 1000 hPa | - | - | - | - |
* Rain since midnight (hover to see other rain measurements)
** Current wind speed in m/s (hover to see current wind gust speed)